Regional Weather Roundup
Issued by NWS

Home | Current Version | Previous Version | Text Only | Print | Product List | Glossary On
Versions: 1 2 3 4 5 6 7 8 9 10 11 12 13 14 15 16 17 18 19 20 21 22 23 24 25 26 27 28 29 30 31 32 33 34 35 36 37 38 39 40 41 42 43 44 45 46 47 48 49 50
361
ASUS44 KLIX 010811
RWRLA
LOUISIANA WEATHER ROUNDUP
NATIONAL WEATHER SERVICE NEW ORLEANS LA
300 AM CDT WED APR 01 2015

NOTE: "FAIR" INDICATES FEW OR NO CLOUDS BELOW 12,000 FEET WITH NO
      SIGNIFICANT WEATHER AND/OR OBSTRUCTIONS TO VISIBILITY.
      SKY/WX - SKY CONDITION AND SIGNIFICANT WEATHER.
      TMP - AIR TEMPERATURE.    DP   - DEWPOINT TEMPERATURE.
      RH  - RELATIVE HUMIDITY.  PRES - PRESSURE.
      HX  - HEAT INDEX.         WCI  - WIND CHILL INDEX.

*  THESE STATIONS ARE NOT NWS OR FAA STATIONS AND ARE NOT UNDER
   NWS QUALITY CONTROL.

LAZ040-048-061>063-065-066-069-010900-
SOUTHEAST LOUISIANA

CITY           SKY/WX    TMP DP  RH WIND       PRES   REMARKS
N.O. AUDUBON   NOT AVBL
N.O. INTL ARPT MOCLDY    65  62  90 S7        30.02F
N.O. LAKEFRONT MOCLDY    69  63  81 S7        30.03F
SLIDELL        PTCLDY    63  60  90 CALM      30.02F
BATON ROUGE    PTCLDY    64  62  93 S3        30.00F
BOOTHVILLE     CLEAR     70  68  93 S6        30.04F
BELLE CHASSE   MOCLDY    60  58  92 SW3       30.02F
BOGALUSA*        N/A     61  57  89 CALM      30.04S
GALLIANO*      MOSUNNY   56  56  98 SW6       30.04F
NEW ROADS*     FAIR      63  61  95 S3        30.00F
GONZALES*      FAIR      64  64 100 S3        30.00F
HAMMOND*       PTCLDY    64  61  88 CALM      30.03F
HOUMA*         FOG       59  59 100 CALM      30.03F VSB 1/2
PORT FOURCHON* MOSUNNY   72  66  83 SW3       30.07F

$$

LAZ041-044-053-054-010900-
SOUTHWEST LOUISIANA

CITY           SKY/WX    TMP DP  RH WIND       PRES   REMARKS
LAKE CHARLES   PTCLDY    69  66  90 S3        30.00S
LAFAYETTE      FOG       62  62 100 SW3       30.01F VSB 3/4
PATTERSON      CLOUDY    63  61  94 CALM      30.03F
SALT POINT       N/A     65  64  97 SE3       30.00F
NEW IBERIA     FOG       63  62  97 S3        30.02F VSB 1/4
CHENAULT AIRPK PTCLDY    63  63  99 CALM      30.01S FOG

$$

LAZ027-028-010900-
CENTRAL LOUISIANA

CITY           SKY/WX    TMP DP  RH WIND       PRES   REMARKS
FORT POLK      CLOUDY    67  65  95 S9        29.99F FOG
ALEXANDRIA INT MOCLDY    66  64  93 SW7       29.98S
ALEXANDRIA     MOCLDY    62  61  96 SW3       29.99F

$$

LAZ001-002-010900-
NORTHWEST LOUISIANA

CITY           SKY/WX    TMP DP  RH WIND       PRES   REMARKS
SHREVEPORT     PTCLDY    65  61  87 SW6       29.95F
BARKSDALE AFB  MOCLDY    65  63  93 S8        29.95F
DTN SHREVEPORT CLEAR     65  60  84 S9        29.95F

$$

LAZ014-016-010900-
NORTHEAST LOUISIANA

CITY           SKY/WX    TMP DP  RH WIND       PRES   REMARKS
MONROE         CLEAR     64  61  90 SW8       29.98S
TALLULAH       CLEAR     66  59  78 VRB5      29.98F

$$




USA.gov is the U.S. government's official web portal to all federal, state and local government web resources and services.